GW4151 Weather Reports


time (UTC)temp
C
wind
direction
speed
KPH
gust
KPH
rain 1hr
cm
rain 24hr
cm
rain mn
cm
humidity
%
barometer
mb
20260507212709 12 153 8.0 12.9 0.00 0.00 0.00 42 991.3
20260507211209 12 230 8.0 14.5 0.00 0.00 0.00 42 991.3
20260507205706 13 149 4.8 9.7 0.00 0.00 0.00 43 991.5
20260507204203 12 230 3.2 4.8 0.00 0.00 0.00 45 991.7
20260507202659 11 226 4.8 11.3 0.00 0.00 0.00 43 992.1
20260507201159 11 267 9.7 12.9 0.00 0.00 0.00 43 992.4
20260507195654 11 275 4.8 9.7 0.00 0.00 0.00 46 992.8
20260507194150 10 294 6.4 12.9 0.00 0.00 0.00 45 992.8
20260507192646 11 209 6.4 14.5 0.00 0.00 0.00 46 993.0
20260507191142 10 246 3.2 11.3 0.00 0.00 0.00 47 993.1
20260507185641 10 234 9.7 12.9 0.00 0.00 0.00 47 993.0
20260507184139 10 270 14.5 16.1 0.00 0.00 0.00 46 993.2
20260507182635 10 173 8.0 11.3 0.00 0.00 0.00 47 993.4
20260507181130 10 262 6.4 12.9 0.00 0.00 0.00 43 993.3
20260507175625 10 275 12.9 14.5 0.00 0.00 0.00 43 993.2
20260507174124 10 285 8.0 14.5 0.00 0.00 0.00 46 993.4
20260507172619 9 276 6.4 6.4 0.00 0.00 0.00 46 993.3
20260507171115 9 235 12.9 16.1 0.00 0.00 0.00 45 993.7
20260507165610 8 274 11.3 17.7 0.00 0.00 0.00 47 994.1
20260507164106 9 227 9.7 14.5 0.00 0.00 0.00 47 994.3
20260507162601 8 260 11.3 14.5 0.00 0.00 0.00 49 994.4
20260507161057 8 240 8.0 22.5 0.00 0.00 0.00 48 994.6
20260507155557 9 280 14.5 20.9 0.00 0.00 0.00 49 994.8
20260507154054 8 309 11.3 17.7 0.00 0.00 0.00 52 994.9
20260507152549 8 300 11.3 16.1 0.00 0.00 0.00 52 994.6
20260507151045 8 215 9.7 20.9 0.00 0.00 0.00 55 994.6
20260507145545 8 239 9.7 16.1 0.00 0.00 0.00 56 994.2
20260507144044 8 256 6.4 14.5 0.00 0.00 0.00 56 994.6
20260507142538 7 310 12.9 22.5 0.00 0.00 0.00 59 994.6
20260507141034 8 307 12.9 22.5 0.00 0.00 0.00 58 994.6
20260507135531 8 247 6.4 14.5 0.00 0.00 0.00 57 994.7
20260507134026 7 240 8.0 14.5 0.00 0.00 0.00 52 994.4
20260507132522 7 274 6.4 17.7 0.00 0.00 0.00 56 994.5
20260507131019 7 220 6.4 14.5 0.00 0.00 0.00 60 994.2
20260507125518 7 266 11.3 12.9 0.00 0.00 0.00 63 994.1
20260507124015 6 237 4.8 11.3 0.00 0.00 0.00 66 994.1
20260507122510 6 248 6.4 9.7 0.00 0.00 0.00 68 993.9
20260507121009 6 265 4.8 9.7 0.00 0.00 0.00 71 994.0
20260507115505 5 246 6.4 9.7 0.00 0.00 0.00 74 993.9
20260507114000 5 266 6.4 6.4 0.00 0.00 0.00 75 993.7
20260507112458 5 190 1.6 3.2 0.00 0.00 0.00 78 993.7
20260507110953 3 232 1.6 4.8 0.00 0.00 0.00 80 993.5
20260507105449 3 239 1.6 3.2 0.00 0.00 0.00 81 993.4
20260507103949 3 219 1.6 3.2 0.00 0.00 0.00 80 993.2
20260507102445 3 230 0.0 6.4 0.00 0.00 0.00 79 993.2
20260507100946 3 250 1.6 4.8 0.00 0.00 0.00 79 993.1
20260507095445 3 254 4.8 4.8 0.00 0.00 0.00 79 993.1
20260507093940 3 278 0.0 3.2 0.00 0.00 0.00 79 992.9
20260507092438 3 257 0.0 3.2 0.00 0.00 0.00 79 993.1
20260507090933 3 259 3.2 3.2 0.00 0.00 0.00 78 993.1
20260507085429 4 247 3.2 6.4 0.00 0.00 0.00 77 993.3
20260507083926 5 254 3.2 6.4 0.00 0.00 0.00 75 993.5
20260507082426 5 199 3.2 6.4 0.00 0.00 0.00 74 993.3
20260507080923 5 265 3.2 4.8 0.00 0.00 0.00 73 993.3
20260507075422 5 244 3.2 6.4 0.00 0.00 0.00 73 993.3
20260507073919 5 255 3.2 4.8 0.00 0.00 0.00 73 993.5
20260507072416 5 237 1.6 3.2 0.00 0.00 0.00 71 993.4
20260507070912 5 291 4.8 6.4 0.00 0.00 0.00 69 993.6
20260507065409 5 296 3.2 9.7 0.00 0.00 0.00 68 993.5
20260507063908 6 290 4.8 9.7 0.00 0.00 0.00 66 993.6
20260507062404 6 290 6.4 6.4 0.00 0.00 0.00 64 993.8
20260507060904 6 327 6.4 11.3 0.00 0.00 0.00 63 993.5
20260507055404 7 264 8.0 12.9 0.00 0.00 0.00 61 993.6
20260507053901 7 275 11.3 16.1 0.00 0.00 0.00 63 993.5
20260507052359 7 11 8.0 12.9 0.00 0.00 0.00 68 993.7
20260507050857 7 276 3.2 4.8 0.00 0.00 0.00 68 993.6
20260507045352 7 250 3.2 4.8 0.00 0.00 0.00 66 993.5
20260507043848 7 206 0.0 3.2 0.00 0.00 0.00 65 993.5
20260507042343 7 203 0.0 1.6 0.00 0.00 0.00 64 993.6
20260507040840 7 215 1.6 1.6 0.00 0.00 0.00 62 993.6
20260507035339 7 204 0.0 3.2 0.00 0.00 0.00 59 993.5
20260507033837 7 209 0.0 3.2 0.00 0.00 0.00 60 993.5
20260507032333 7 180 0.0 0.0 0.00 0.00 0.00 62 993.6
20260507030828 7 190 0.0 1.6 0.00 0.00 0.00 58 993.6
20260507025326 8 250 3.2 4.8 0.00 0.00 0.00 55 993.7
20260507023822 8 256 1.6 3.2 0.00 0.00 0.00 54 993.7
20260507022318 8 229 3.2 6.4 0.00 0.00 0.00 53 993.6
20260507020814 8 188 3.2 3.2 0.00 0.00 0.00 51 993.3
20260507015310 9 253 3.2 4.8 0.00 0.00 0.00 50 993.3
20260507013806 9 232 4.8 6.4 0.00 0.00 0.00 47 993.2
20260507012305 9 242 3.2 4.8 0.00 0.00 0.00 47 993.1
20260507010801 9 223 1.6 4.8 0.00 0.00 0.00 46 993.1
20260507005257 10 243 3.2 6.4 0.00 0.00 0.00 46 993.2
20260507003754 10 219 3.2 4.8 0.00 0.00 0.00 45 992.9
20260507002253 10 203 3.2 4.8 0.00 0.00 0.00 45 993.0
20260507000750 10 202 3.2 4.8 0.00 0.00 0.00 44 992.8
20260506235249 10 231 1.6 9.7 0.00 0.00 0.00 44 992.7
20260506233748 10 273 4.8 4.8 0.00 0.00 0.00 44 992.8
20260506232247 10 269 1.6 9.7 0.00 0.00 0.00 43 992.9
20260506230745 10 333 6.4 9.7 0.00 0.00 0.00 42 992.9
20260506225242 10 307 6.4 11.3 0.00 0.00 0.00 41 992.9
20260506223738 11 261 9.7 16.1 0.00 0.00 0.00 41 992.8
20260506222238 11 279 3.2 9.7 0.00 0.00 0.00 41 992.9
20260506220737 12 257 11.3 14.5 0.00 0.00 0.00 38 992.9
20260506215236 12 275 6.4 14.5 0.00 0.00 0.00 40 992.6
20260506213734 12 294 11.3 14.5 0.00 0.00 0.00 39 992.7